Meteopurmerend
purmerend
Purmerend - Baaienwijk



My webcam  My webcam


Onweer radar Meer informatie blitzortung!


Regen radar Meer informatie rain snow radar


Bezoek onze andere website:

CandyAppleRed WebdesignWebdesign Purmerend Candy Apple Red

MeteopurmerendBlog

Template documentation
and downloads



We konden geen weer-waarchuwingen ophalen. Ga rechtstreeks naar de Meteoalarm site : www.meteoalarm.eu en controleer daar .

15 daagse weersverwachting Stoke-on-Trent (GB)

  • Overzicht
  • Per uur
  • 15 dagen
  • Extra
  • Vergelijk
  • Kaarten
  • Dagkaart
  • Meer »
  • Info
  • Statistieken
  • Directe link
    Temp 6h Neerslag Wind  
 05:24     21:07    Daglengte: 15:43 Vandaag
13:00
17°
 
7
19:00
17°
 
4
 05:26     21:05    Daglengte: 15:39 Morgen
01:00
13°
 
1
07:00
12°
4.8 mm
2
13:00
14°
10.1 mm
4
19:00
15°
 
5
 05:28     21:04    Daglengte: 15:36 Zaterdag 31 Jul
01:00
14°
 
4
07:00
13°
 
4
13:00
18°
19.5 mm
4
19:00
17°
43.6 mm
5
 05:29     21:02    Daglengte: 15:33 Zondag 01 Aug
01:00
12°
 
4
07:00
12°
 
2
Locatie info
Region: England
Latitude: 53.0299°N
Longitude: -2.1750°E
114 masl
Postcode: ST1 5
Temp/Neerslag /Baro Onweer/Dauwpunt
    Temp Baro 1h Neerslag Dauwpunt Wind UV Bewolking  
 05:24     21:07    Daglengte: 15:43 Vandaag
11:00
16°
1007.4 hPa
13%
7.8°
7
Windvlaag: 3.7 m/s
59%
12:00
17°
1007.5 hPa
14%
8.0°
7
Windvlaag: 3.5 m/s
79%
13:00
17°
1007.7 hPa
13%
8.3°
7
Windvlaag: 3.2 m/s
59%
14:00
17°
1007.7 hPa
13%
8.7°
7
Windvlaag: 3.1 m/s
69%
15:00
17°
1007.9 hPa
17%
9.0°
6
Windvlaag: 2.8 m/s
76%
16:00
17°
1008.0 hPa
17%
9.8°
6
Windvlaag: 2.4 m/s
64%
17:00
17°
1008.1 hPa
14%
10.1°
6
Windvlaag: 2.6 m/s
47%
18:00
17°
1008.1 hPa
15%
10.5°
5
Windvlaag: 1.8 m/s
77%
19:00
17°
1008.2 hPa
14%
10.6°
4
Windvlaag: 1.8 m/s
76%
20:00
16°
1008.1 hPa
14%
10.4°
3
Windvlaag: 1.8 m/s
79%
21:00
15°
1008.1 hPa
16%
10.5°
2
Windvlaag: 0.3 m/s
78%
22:00
14°
1008.1 hPa
13%
10.8°
2
Windvlaag: 2.4 m/s
65%
23:00
14°
1007.7 hPa
13%
10.5°
2
Windvlaag: 1.7 m/s
50%
 05:26     21:05    Daglengte: 15:39 Morgen
00:00
14°
1007.4 hPa
18%
10.5°
1
Windvlaag: 0 m/s
51%
01:00
13°
1006.8 hPa
80%
10.2°
1
Windvlaag: 1.8 m/s
76%
02:00
13°
1006.2 hPa
82%
10.3°
1
Windvlaag: 1.9 m/s
71%
03:00
13°
1005.6 hPa
82%
10.5°
2
Windvlaag: 0.4 m/s
82%
04:00
13°
1004.7 hPa
82%
10.6°
1
Windvlaag: 0.6 m/s
81%
05:00
13°
1004.5 hPa 0.4 mm
82%
11.0°
2
Windvlaag: 1.4 m/s
86%
06:00
12°
1004.4 hPa 1.3 mm
82%
11.1°
2
Windvlaag: 2.9 m/s
86%
07:00
12°
1004.1 hPa 3.2 mm
82%
11.2°
2
Windvlaag: 2.3 m/s
86%
08:00
12°
1003.9 hPa 3.8 mm
82%
11.2°
2
Windvlaag: 0.9 m/s
86%
09:00
13°
1003.8 hPa 3.6 mm
82%
11.5°
3
Windvlaag: -1.5 m/s
86%
10:00
13°
1003.8 hPa 2.7 mm
77%
11.9°
3
Windvlaag: -2.1 m/s
70%
11:00
13°
1003.9 hPa
73%
12.3°
4
Windvlaag: -2.6 m/s
76%
12:00
14°
1004.0 hPa
74%
12.6°
4
Windvlaag: -3 m/s
79%
13:00
14°
1004.1 hPa
71%
12.8°
4
Windvlaag: -2.6 m/s
86%
14:00
15°
1004.3 hPa
68%
11.4°
5
Windvlaag: -2 m/s
86%
15:00
15°
1004.4 hPa
30%
10.1°
5
Windvlaag: -2 m/s
63%
16:00
16°
1004.5 hPa
27%
10.4°
5
Windvlaag: -1.9 m/s
59%
17:00
15°
1005.0 hPa
36%
10.8°
5
Windvlaag: -2.3 m/s
86%
18:00
15°
1005.4 hPa
70%
10.7°
5
Windvlaag: -1.5 m/s
76%
19:00
15°
1005.7 hPa
71%
11.3°
5
Windvlaag: -1.8 m/s
82%
20:00
15°
1006.2 hPa
80%
11.5°
5
Windvlaag: -1.9 m/s
79%
21:00
14°
1006.7 hPa
82%
11.2°
5
Windvlaag: -1.6 m/s
68%
22:00
14°
1007.1 hPa
42%
11.2°
4
Windvlaag: -1 m/s
65%
23:00
14°
1007.4 hPa
28%
11.4°
4
Windvlaag: -0.7 m/s
64%
 05:28     21:04    Daglengte: 15:36 Zaterdag 31 Jul
00:00
14°
1007.5 hPa
17%
11.5°
4
Windvlaag: -0.1 m/s
57%
01:00
14°
1007.6 hPa
26%
11.8°
4
Windvlaag: 1 m/s
58%
02:00
13°
1007.5 hPa
23%
11.9°
4
Windvlaag: 1.4 m/s
55%
03:00
13°
1007.4 hPa
22%
11.7°
3
Windvlaag: 1.7 m/s
73%
04:00
13°
1006.2 hPa
39%
12.3°
4
Windvlaag: 2.1 m/s
78%
05:00
12°
1006.4 hPa
95%
12.0°
3
Windvlaag: 2.6 m/s
73%
06:00
12°
1006.7 hPa
43%
12.0°
3
Windvlaag: 2.7 m/s
68%
07:00
13°
1007.0 hPa
27%
12.4°
4
Windvlaag: 2.1 m/s
83%
08:00
14°
1007.3 hPa
22%
12.5°
4
Windvlaag: 2.8 m/s
92%
09:00
15°
1007.5 hPa 9.7 mm
21%
12.3°
4
Windvlaag: 2.8 m/s
90%
10:00
16°
1007.6 hPa
21%
11.5°
5
Windvlaag: 2 m/s
83%
11:00
17°
1007.6 hPa
25%
11.0°
4
Windvlaag: 1.4 m/s
80%
12:00
18°
1007.5 hPa
71%
10.9°
4
Windvlaag: 1.1 m/s
66%
13:00
18°
1007.6 hPa 9.7 mm
82%
10.3°
4
Windvlaag: 0.6 m/s
67%
14:00
18°
1007.6 hPa 5.9 mm
89%
10.1°
4
Windvlaag: 0.4 m/s
68%
15:00
18°
1007.6 hPa 6.0 mm
85%
9.8°
4
Windvlaag: -1.6 m/s
73%
16:00
18°
1007.6 hPa 6.0 mm
90%
9.7°
4
Windvlaag: -2.6 m/s
85%
17:00
17°
1007.6 hPa 6.1 mm
90%
9.3°
4
Windvlaag: -1.9 m/s
90%
18:00
17°
1007.5 hPa 9.8 mm
80%
9.8°
5
Windvlaag: -1.9 m/s
79%
19:00
17°
1007.5 hPa 9.8 mm
22%
10.3°
5
Windvlaag: -3.1 m/s
62%
20:00
16°
1007.6 hPa
24%
10.4°
4
Windvlaag: -2.9 m/s
62%
21:00
15°
1008.1 hPa
25%
10.9°
3
Windvlaag: -2 m/s
72%
22:00
14°
1008.3 hPa
25%
11.5°
3
Windvlaag: -0.8 m/s
77%
23:00
13°
1008.5 hPa
21%
11.9°
3
Windvlaag: -1 m/s
82%
 05:29     21:02    Daglengte: 15:33 Zondag 01 Aug
00:00
13°
1008.6 hPa
22%
12.1°
3
Windvlaag: -0.6 m/s
85%
01:00
12°
1008.5 hPa
22%
11.7°
4
Windvlaag: 0.3 m/s
36%
02:00
13°
1008.4 hPa
21%
12.4°
3
Windvlaag: 8.9 m/s
74%
03:00
12°
1008.3 hPa
21%
11.8°
3
Windvlaag: 8.6 m/s
12%
04:00
12°
1008.2 hPa
21%
11.2°
3
Windvlaag: 8 m/s
13%
05:00
11°
1008.2 hPa
21%
10.8°
2
Windvlaag: 7.6 m/s
15%
06:00
11°
1008.5 hPa
25%
10.7°
2
Windvlaag: 7.2 m/s
29%
07:00
12°
1008.8 hPa
24%
10.9°
2
Windvlaag: 4.5 m/s
45%
08:00
13°
1007.8 hPa 28.9 mm
100%
11.2°
3
Windvlaag: 4.5 m/s
90%
09:00
15°
1008.0 hPa 28.9 mm
100%
11.1°
3
Windvlaag: 3.1 m/s
90%
10:00
16°
1008.4 hPa 28.9 mm
100%
10.7°
3
Windvlaag: 2.5 m/s
93%
Temp/Neerslag /Baro Onweer/Dauwpunt
    Temp Baro Neerslag Dauwpunt Wind Bewolking  
 05:24     21:07    Daglengte: 15:43 Vandaag
13:00
17°
1007.7 hPa   8.3°
7
59%
16:00
17°
1008.0 hPa   9.8°
6
64%
19:00
17°
1008.2 hPa   10.6°
4
76%
22:00
14°
1008.1 hPa   10.8°
2
65%
 05:26     21:05    Daglengte: 15:39 Morgen
01:00
13°
1006.8 hPa   10.2°
1
76%
04:00
13°
1004.7 hPa   10.6°
1
81%
07:00
12°
1004.1 hPa 4.8 mm 11.2°
2
86%
10:00
13°
1003.8 hPa 10.1 mm 11.9°
3
70%
13:00
14°
1004.1 hPa   12.8°
4
86%
16:00
16°
1004.5 hPa   10.4°
5
59%
19:00
15°
1005.7 hPa   11.3°
5
82%
22:00
14°
1007.1 hPa   11.2°
4
65%
 05:28     21:04    Daglengte: 15:36 Zaterdag 31 Jul
01:00
14°
1007.6 hPa   11.8°
4
58%
04:00
13°
1006.2 hPa   12.3°
4
78%
07:00
13°
1007.0 hPa   12.4°
4
83%
10:00
16°
1007.6 hPa 9.7 mm 11.5°
5
83%
13:00
18°
1007.6 hPa 9.7 mm 10.3°
4
67%
16:00
18°
1007.6 hPa 17.9 mm 9.7°
4
85%
19:00
17°
1007.5 hPa 25.7 mm 10.3°
5
62%
22:00
14°
1008.3 hPa   11.5°
3
77%
 05:29     21:02    Daglengte: 15:33 Zondag 01 Aug
01:00
12°
1008.5 hPa   11.7°
4
36%
04:00
12°
1008.2 hPa   11.2°
3
13%
07:00
12°
1008.8 hPa   10.9°
2
45%
10:00
16°
1008.4 hPa 86.8 mm 10.7°
3
93%
13:00
18°
1008.2 hPa 86.8 mm 9.7°
2
95%
16:00
18°
1011.1 hPa 14.6 mm 8.3°
3
1%
19:00
16°
1011.9 hPa 14.8 mm 11.1°
4
0%
22:00
11°
1013.9 hPa 14.9 mm 9.3°
3
0%
 05:31     21:00    Daglengte: 15:29 Maandag 02 Aug
01:00
10°
Voelt als: 8.6°
1014.6 hPa 14.9 mm 8.4°
2
0%
04:00
10°
Voelt als: 9.1°
1015.0 hPa 14.9 mm 8.0°
2
0%
07:00
11°
1015.4 hPa 14.9 mm 8.5°
2
1%
10:00
15°
1015.8 hPa 14.9 mm 7.6°
2
1%
13:00
17°
1015.5 hPa 15.0 mm 6.2°
3
1%
16:00
17°
1016.0 hPa 15.0 mm 7.2°
2
1%
19:00
16°
1016.0 hPa 15.0 mm 8.8°
2
1%
22:00
13°
1016.9 hPa 15.0 mm 7.6°
2
1%
 05:32     20:58    Daglengte: 15:26 Dinsdag 03 Aug
01:00
10°
1017.5 hPa 15.0 mm 7.1°
1
1%
04:00
Voelt als: 9.1°
1017.2 hPa 15.0 mm 7.0°
1
0%
07:00
11°
1017.5 hPa 15.0 mm 8.5°
1
0%
10:00
17°
1017.1 hPa 15.0 mm 8.9°
2
0%
13:00
19°
1016.0 hPa 15.0 mm 8.0°
2
1%
16:00
18°
1015.6 hPa 15.0 mm 11.2°
2
1%
19:00
19°
1015.4 hPa 15.0 mm 10.4°
0
1%
22:00
13°
1016.2 hPa 15.0 mm 9.7°
0
1%
 05:34     20:56    Daglengte: 15:22 Woensdag 04 Aug
01:00
12°
1016.5 hPa 15.0 mm 9.3°
1
1%
04:00
11°
1016.0 hPa 15.0 mm 8.5°
1
1%
07:00
12°
1016.7 hPa 15.0 mm 8.6°
2
1%
10:00
17°
1016.5 hPa 15.0 mm 11.1°
3
1%
13:00
21°
1015.4 hPa 15.2 mm 10.9°
4
1%
16:00
21°
1014.6 hPa 15.5 mm 11.2°
3
1%
19:00
18°
1015.0 hPa 16.1 mm 14.1°
3
1%
22:00
14°
1015.9 hPa 16.2 mm 11.8°
1
0%
 05:36     20:55    Daglengte: 15:19 Donderdag 05 Aug
01:00
12°
1016.0 hPa 16.2 mm 10.7°
1
0%
04:00
11°
1015.3 hPa 16.2 mm 10.0°
2
1%
07:00
12°
1015.3 hPa 16.2 mm 10.8°
2
1%
10:00
17°
1014.8 hPa   12.8°
3
1%
13:00
19°
1013.8 hPa 32.8 mm 13.6°
4
1%
19:00
16°
1012.3 hPa 37.2 mm 14.6°
2
1%
 05:37     20:53    Daglengte: 15:16 Vrijdag 06 Aug
01:00
14°
1011.9 hPa 41.0 mm 13.2°
2
1%
07:00
13°
1010.5 hPa 41.0 mm 12.4°
2
1%
13:00
20°
1008.7 hPa 41.1 mm 11.5°
4
1%
19:00
17°
1006.6 hPa 44.5 mm 14.0°
5
1%
 05:39     20:51    Daglengte: 15:12 Zaterdag 07 Aug
01:00
14°
1005.7 hPa 48.7 mm 12.1°
5
1%
07:00
13°
1002.6 hPa 55.2 mm 12.0°
4
1%
13:00
17°
1001.3 hPa 75.6 mm 12.9°
4
1%
19:00
16°
1000.9 hPa 82.1 mm 13.1°
4
1%
 05:41     20:49    Daglengte: 15:08 Zondag 08 Aug
01:00
11°
1003.0 hPa 86.4 mm 10.5°
2
1%
07:00
13°
1007.9 hPa 0.4 mm 11.2°
3
76%
13:00
18°
1008.6 hPa 1.3 mm 11.6°
4
77%
19:00
17°
1009.3 hPa 1.5 mm 11.9°
4
78%
 05:42     20:47    Daglengte: 15:05 Maandag 09 Aug
01:00
13°
1011.3 hPa 0.4 mm 11.1°
3
57%
07:00
13°
1012.0 hPa 0.2 mm 11.0°
2
55%
13:00
19°
1013.1 hPa   11.6°
4
60%
19:00
18°
1013.4 hPa 1.7 mm 11.8°
4
51%
 05:44     20:45    Daglengte: 15:01 Dinsdag 10 Aug
01:00
13°
1015.3 hPa 0.2 mm 10.9°
3
45%
07:00
13°
1015.4 hPa 0.4 mm 11.2°
3
51%
13:00
19°
1015.5 hPa 0.7 mm 12.1°
4
64%
19:00
18°
1014.7 hPa 1.3 mm 12.6°
4
68%
 05:46     20:43    Daglengte: 14:57 Woensdag 11 Aug
01:00
14°
1015.5 hPa 0.3 mm 12.0°
3
55%
07:00
14°
1015.4 hPa 0.6 mm 11.8°
3
55%
13:00
20°
1015.5 hPa 0.6 mm 12.5°
4
71%
19:00
19°
1015.2 hPa 0.9 mm 12.8°
3
63%
 05:47     20:41    Daglengte: 14:54 Donderdag 12 Aug
01:00
14°
1016.4 hPa 0.6 mm 11.4°
2
61%
07:00
13°
1016.2 hPa 0.5 mm 11.2°
1
59%
13:00
19°
1015.8 hPa 0.3 mm 12.0°
2
69%
19:00
18°
1015.2 hPa 1.2 mm 12.3°
3
65%
 05:49     20:39    Daglengte: 14:50 Vrijdag 13 Aug
01:00
13°
1016.0 hPa 0.7 mm 11.1°
2
54%
07:00
13°
1015.7 hPa 1.0 mm 11.4°
2
64%
  CAPE Lifted Index Hail Supercell Tornado SRH 3km CL BTM PRES CL TOP PRES Swiss DWD icon SMHI TS
 05:24     21:07    Daglengte: 15:43 Vandaag
11:00 12 J/kg 4.9 K 0 % 0 % 0 % 0 m²/s² 0 0 7.45 3
12:00 20 J/kg 5.0 K 0 % 0 % 0 % 0 m²/s² 0 0 7.64 3
13:00 18 J/kg 5.2 K 0 % 0 % 0 % 0 m²/s² 0 0 8.08 3
14:00 24 J/kg 5.0 K 0 % 0 % 0 % 0 m²/s² 0 0 7.97 3
15:00 24 J/kg 4.8 K 0 % 0 % 0 % 0 m²/s² 0 0 7.95 3
16:00 23 J/kg 5.1 K 0 % 0 % 0 % 0 m²/s² 0 0 8.61 3
17:00 24 J/kg 5.2 K 0 % 0 % 0 % 0 m²/s² 0 0 9.64 3
18:00 23 J/kg 5.0 K 0 % 0 % 0 % 0 m²/s² 0 0 9.92 3
19:00 18 J/kg 5.2 K 0 % 0 % 0 % 0 m²/s² 0 0 11.14 3
20:00 26 J/kg 5.3 K 0 % 0 % 0 % 0 m²/s² 0 0 8.84 3
21:00 5 J/kg 6.0 K 0 % 0 % 0 % 0 m²/s² 0 0 7.8 3
22:00 0 J/kg 6.4 K 0 % 0 % 0 % 0 m²/s² 0 0 7.63 3
23:00 0 J/kg 6.3 K 0 % 0 % 0 % 0 m²/s² 0 0 7.32 3
 05:26     21:05    Daglengte: 15:39 Morgen
00:00 0 J/kg 6.1 K 0 % 0 % 0 % 0 m²/s² 0 0 6.76 3
01:00 0 J/kg 5.8 K 0 % 0 % 0 % 0 m²/s² 0 0 6.22 61
02:00 0 J/kg 5.3 K 0 % 0 % 0 % 0 m²/s² 0 0 5.54 61
03:00 0 J/kg 3.5 K 0 % 0 % 0 % 0 m²/s² 0 0 3.59 61
04:00 0 J/kg 2.8 K 0 % 0 % 0 % 0 m²/s² 0 0 2.92 61
05:00 0 J/kg 2.3 K 0 % 0 % 0 % 0 m²/s² 0 0 2.69 3
06:00 0 J/kg 2.4 K 0 % 0 % 0 % 0 m²/s² 0 0 2.43 63
07:00 0 J/kg 2.2 K 0 % 0 % 0 % 0 m²/s² 0 0 2.32 63
08:00 3 J/kg 1.4 K 0 % 0 % 0 % 0 m²/s² 0 0 1.64 63
09:00 6 J/kg 1.5 K 0 % 0 % 0 % 0 m²/s² 0 0 1.83 61
10:00 2 J/kg 1.7 K 0 % 0 % 0 % 0 m²/s² 0 0 2 3
11:00 1 J/kg 1.3 K 0 % 0 % 0 % 0 m²/s² 0 0 1.42 3
12:00 3 J/kg 1.3 K 0 % 0 % 0 % 0 m²/s² 0 0 2.11 3
13:00 9 J/kg 1.2 K 0 % 0 % 0 % 0 m²/s² 0 0 1.32 3
14:00 9 J/kg 1.0 K 0 % 0 % 0 % 0 m²/s² 0 0 1.12 3
15:00 3 J/kg 1.0 K 0 % 0 % 0 % 0 m²/s² 0 0 1.63 3
16:00 2 J/kg 1.5 K 0 % 0 % 0 % 0 m²/s² 0 0 1.89 3
17:00 34 J/kg 1.4 K 0 % 0 % 0 % 0 m²/s² 0 0 1.64 3
18:00 53 J/kg 1.1 K 0 % 0 % 0 % 0 m²/s² 0 0 1.61 3
19:00 56 J/kg 0.9 K 0 % 0 % 0 % 0 m²/s² 0 0 1.62 3
20:00 70 J/kg 0.9 K 0 % 0 % 0 % 0 m²/s² 0 0 1.44 3
21:00 56 J/kg 1.4 K 0 % 0 % 0 % 0 m²/s² 0 0 1.94 80
22:00 7 J/kg 1.0 K 0 % 0 % 0 % 0 m²/s² 0 0 1.69 3
23:00 19 J/kg 1.3 K 0 % 0 % 0 % 0 m²/s² 0 0 1.93 3
 05:28     21:04    Daglengte: 15:36 Zaterdag 31 Jul
00:00 12 J/kg 1.4 K 0 % 0 % 0 % 0 m²/s² 0 0 1.82 3
01:00 0 J/kg 0.5 K 0 % 0 % 0 % 0 m²/s² 0 0 1.19 3
02:00 0 J/kg 0.3 K 0 % 0 % 0 % 0 m²/s² 0 0 0.99 3
03:00 0 J/kg 0.4 K 0 % 0 % 0 % 0 m²/s² 0 0 1.24 3
04:00 0 J/kg 0.5 K 0 % 0 % 0 % 0 m²/s² 0 0 1.52 3
05:00 0 J/kg 0.5 K 0 % 0 % 0 % 0 m²/s² 0 0 1.19 61
06:00 0 J/kg 1.1 K 0 % 0 % 0 % 0 m²/s² 0 0 1.4 3
07:00 0 J/kg 1.2 K 0 % 0 % 0 % 0 m²/s² 0 0 1.38 3
08:00 2 J/kg 2.1 K 0 % 0 % 0 % 0 m²/s² 0 0 2.4 3
09:00 3 J/kg 2.4 K 0 % 0 % 0 % 0 m²/s² 0 0 3 3
10:00 10 J/kg 2.0 K 0 % 0 % 0 % 0 m²/s² 0 0 2.84 3
11:00 9 J/kg 1.7 K 0 % 0 % 0 % 0 m²/s² 0 0 2.54 3
12:00 18 J/kg 1.6 K 0 % 0 % 0 % 0 m²/s² 0 0 2.29 2
13:00 16 J/kg 1.7 K 0 % 0 % 0 % 0 m²/s² 0 0 2.3 80
14:00 12 J/kg 1.5 K 0 % 0 % 0 % 0 m²/s² 0 0 2.1 80
15:00 8 J/kg 1.1 K 0 % 0 % 0 % 0 m²/s² 0 0 1.88 80
16:00 7 J/kg 1.2 K 0 % 0 % 0 % 0 m²/s² 0 0 1.89 80
17:00 0 J/kg 1.2 K 0 % 0 % 0 % 0 m²/s² 0 0 1.8 80
18:00 0 J/kg 1.3 K 0 % 0 % 0 % 0 m²/s² 0 0 2.32 2
19:00 0 J/kg 1.7 K 0 % 0 % 0 % 0 m²/s² 0 0 3.08 3
20:00 0 J/kg 1.8 K 0 % 0 % 0 % 0 m²/s² 0 0 3.54 3
21:00 0 J/kg 2.2 K 0 % 0 % 0 % 0 m²/s² 0 0 3.82 3
22:00 0 J/kg 1.5 K 0 % 0 % 0 % 0 m²/s² 0 0 3.12 3
23:00 0 J/kg 1.8 K 0 % 0 % 0 % 0 m²/s² 0 0 3.48 3
 05:29     21:02    Daglengte: 15:33 Zondag 01 Aug
00:00 0 J/kg 2.1 K 0 % 0 % 0 % 0 m²/s² 0 0 4.2 3
01:00 0 J/kg 2.9 K 0 % 0 % 0 % 0 m²/s² 0 0 5.66 3
02:00 0 J/kg 3.6 K 0 % 0 % 0 % 0 m²/s² 0 0 6.51 3
03:00 0 J/kg 4.2 K 0 % 0 % 0 % 0 m²/s² 0 0 7.2 3
04:00 0 J/kg 4.3 K 0 % 0 % 0 % 0 m²/s² 0 0 7.45 2
05:00 0 J/kg 4.7 K 0 % 0 % 0 % 0 m²/s² 0 0 7.94 2
06:00 0 J/kg 5.0 K 0 % 0 % 0 % 0 m²/s² 0 0 8.33 3
07:00 0 J/kg 5.1 K 0 % 0 % 0 % 0 m²/s² 0 0 8.88 2
08:00 5 J/kg 4.8 K 0 % 0 % 0 % 0 m²/s² 0 0 9.09
09:00 7 J/kg 4.4 K 0 % 0 % 0 % 0 m²/s² 0 0 8.57
10:00 19 J/kg 4.1 K 0 % 0 % 0 % 0 m²/s² 0 0 7.85
Temp Baro Wind Neerslag
  EWN Forecast EWN WRFDA DWD ICON FMI HIRLAM MET Norway GFS
 05:24     21:07    Daglengte: 15:43 Vandaag
13:00 16.7° 1007.7 hPa 6.8 m/s 0.0 mm 18.5° 1006.9 hPa 7.9 m/s 0.6 mm 16.7° 1007.7 hPa 6.6 m/s -2.0 mm 16.6° 1008.2 hPa 6.4 m/s 0.0 mm 17.8° 1007.4 hPa 7.3 m/s
16:00 17.3° 1008.0 hPa 5.9 m/s 0.0 mm 19.3° 1007.1 hPa 6.9 m/s 0.6 mm 17.4° 1008.0 hPa 5.4 m/s 0.0 mm 16.4° 1008.8 hPa 5.7 m/s 0.0 mm 17.4° 1007.9 hPa 6.1 m/s
19:00 16.7° 1008.2 hPa 4.4 m/s 0.0 mm 18.1° 1007.0 hPa 4.5 m/s 0.6 mm 16.7° 1008.2 hPa 4.3 m/s 0.0 mm 15.1° 1009.4 hPa 4.2 m/s 0.0 mm 16.9° 1007.9 hPa 4.6 m/s
22:00 14.4° 1008.1 hPa 2.0 m/s 0.0 mm 13.7° 1007.1 hPa 2.5 m/s 0.6 mm 14.6° 1007.9 hPa 1.4 m/s 0.0 mm 14.0° 1009.6 hPa 1.9 m/s 0.0 mm 12.3° 1008.2 hPa 2.4 m/s
 05:26     21:05    Daglengte: 15:39 Morgen
01:00 13.2° 1006.8 hPa 1.3 m/s 0.0 mm 13.6° 1005.8 hPa 1.5 m/s 0.6 mm 13.3° 1006.6 hPa 1.2 m/s 0.2 mm 13.6° 1008.7 hPa 1.9 m/s 0.0 mm 10.9° 1007.0 hPa 1.9 m/s
04:00 12.7° 1004.7 hPa 1.5 m/s 0.0 mm 13.4° 1003.7 hPa 3.0 m/s 0.8 mm 12.7° 1004.2 hPa 2.3 m/s 3.2 mm 13.2° 1007.6 hPa 1.2 m/s 0.0 mm 11.7° 1005.2 hPa 2.7 m/s
07:00 12.2° 1004.1 hPa 2.3 m/s 4.8 mm 12.5° 1002.0 hPa 4.1 m/s 6.7 mm 12.1° 1001.4 hPa 4.8 m/s 6.9 mm 13.2° 1007.5 hPa 1.7 m/s 0.0 mm 12.2° 1003.2 hPa 5.3 m/s
10:00 13.0° 1003.8 hPa 3.1 m/s 10.1 mm 13.0° 1001.1 hPa 4.2 m/s 27.1 mm 12.9° 1000.7 hPa 5.1 m/s 6.7 mm 13.9° 1007.6 hPa 1.5 m/s 0.0 mm 13.0° 1002.0 hPa 4.5 m/s
13:00 14.1° 1004.1 hPa 4.0 m/s 0.0 mm 12.9° 1001.2 hPa 4.5 m/s 48.3 mm 13.9° 1001.9 hPa 5.3 m/s 0.1 mm 15.3° 1008.1 hPa 2.1 m/s 0.0 mm 13.4° 1001.5 hPa 3.8 m/s
16:00 15.7° 1004.5 hPa 4.8 m/s 0.0 mm 13.0° 1002.2 hPa 5.9 m/s 75.7 mm 15.3° 1003.3 hPa 4.6 m/s 0.0 mm 17.5° 1008.4 hPa 5.5 m/s 0.0 mm 12.5° 1002.0 hPa 5.6 m/s
19:00 14.9° 1005.7 hPa 5.2 m/s 0.0 mm 14.5° 1003.2 hPa 6.5 m/s 81.9 mm 14.8° 1004.8 hPa 4.7 m/s 0.1 mm 15.8° 1009.1 hPa 4.7 m/s 0.0 mm 12.2° 1004.1 hPa 5.5 m/s
22:00 14.0° 1007.1 hPa 4.4 m/s 0.0 mm 13.3° 1004.4 hPa 4.7 m/s 82.7 mm 14.0° 1006.0 hPa 3.4 m/s 0.3 mm 15.2° 1010.6 hPa 4.2 m/s 0.0 mm 12.6° 1005.2 hPa 5.9 m/s
 05:28     21:04    Daglengte: 15:36 Zaterdag 31 Jul
01:00 13.6° 1007.6 hPa 3.6 m/s 0.0 mm 13.2° 1004.9 hPa 4.6 m/s 84.2 mm 13.6° 1006.0 hPa 3.1 m/s 0.0 mm 14.2° 1010.3 hPa 3.3 m/s 0.0 mm 12.8° 1005.9 hPa 5.2 m/s
04:00 12.9° 1006.2 hPa 4.0 m/s 0.0 mm 13.0° 1004.7 hPa 4.8 m/s 86.3 mm 13.5° 1006.2 hPa 2.9 m/s 0.0 mm 12.9° 1006.1 hPa 5.1 m/s
07:00 13.1° 1007.0 hPa 3.5 m/s 0.0 mm 13.1° 1006.0 hPa 3.6 m/s 86.8 mm 13.6° 1007.0 hPa 2.5 m/s 0.1 mm 12.9° 1007.3 hPa 4.7 m/s
10:00 15.9° 1007.6 hPa 4.7 m/s 9.7 mm 16.7° 1006.4 hPa 5.5 m/s 86.8 mm 16.2° 1007.5 hPa 4.0 m/s 0.0 mm 15.8° 1008.1 hPa 5.7 m/s
13:00 18.1° 1007.6 hPa 4.3 m/s 9.7 mm 19.4° 1006.5 hPa 5.7 m/s 86.8 mm 18.2° 1007.7 hPa 4.1 m/s 0.1 mm 17.7° 1008.4 hPa 4.2 m/s
16:00 18.0° 1007.6 hPa 4.2 m/s 17.9 mm 20.0° 1006.5 hPa 5.8 m/s 86.8 mm 18.4° 1007.6 hPa 4.0 m/s 0.5 mm 17.7° 1008.6 hPa 3.7 m/s
19:00 16.8° 1007.5 hPa 4.6 m/s 25.7 mm 17.9° 1006.5 hPa 5.4 m/s 86.8 mm 17.3° 1007.5 hPa 3.7 m/s 0.4 mm 16.5° 1008.7 hPa 4.1 m/s
22:00 14.2° 1008.3 hPa 3.2 m/s 0.0 mm 14.3° 1007.7 hPa 3.3 m/s 86.8 mm 15.0° 1008.3 hPa 2.4 m/s 0.0 mm 13.0° 1009.8 hPa 2.3 m/s
 05:29     21:02    Daglengte: 15:33 Zondag 01 Aug
01:00 12.3° 1008.5 hPa 3.8 m/s 0.0 mm 12.1° 1007.7 hPa 3.7 m/s 86.8 mm 14.0° 1008.6 hPa 3.0 m/s 0.0 mm 12.8° 1009.9 hPa 1.6 m/s
04:00 11.5° 1008.2 hPa 2.5 m/s 0.0 mm 9.7° 1007.3 hPa 2.5 m/s 86.8 mm 12.0° 1008.4 hPa 2.6 m/s 0.0 mm 13.0° 1009.6 hPa 2.0 m/s
07:00 11.9° 1008.8 hPa 2.3 m/s 0.0 mm 11.3° 1007.7 hPa 2.7 m/s 86.8 mm 12.0° 1009.0 hPa 2.2 m/s 0.0 mm 12.6° 1010.1 hPa 2.2 m/s
10:00 15.7° 1008.4 hPa 2.6 m/s 86.8 mm 15.7° 1008.4 hPa 2.6 m/s 86.8 mm 14.3° 1010.8 hPa 3.6 m/s
13:00 18.3° 1008.2 hPa 2.3 m/s 86.8 mm 18.3° 1008.2 hPa 2.3 m/s 86.8 mm 17.3° 1010.9 hPa 4.0 m/s
16:00 18.3° 1011.1 hPa 3.3 m/s 14.6 mm 18.3° 1011.1 hPa 3.3 m/s 14.6 mm
19:00 16.0° 1011.9 hPa 4.2 m/s 14.8 mm 16.0° 1011.9 hPa 4.2 m/s 14.8 mm
22:00 11.2° 1013.9 hPa 3.1 m/s 14.9 mm 11.2° 1013.9 hPa 3.1 m/s 14.9 mm
 05:31     21:00    Daglengte: 15:29 Maandag 02 Aug
01:00 9.8° 1014.6 hPa 2.5 m/s 14.9 mm 9.8° 1014.6 hPa 2.5 m/s 14.9 mm
04:00 9.9° 1015.0 hPa 2.0 m/s 14.9 mm 9.9° 1015.0 hPa 2.0 m/s 14.9 mm
07:00 11.5° 1015.4 hPa 1.6 m/s 14.9 mm 11.5° 1015.4 hPa 1.6 m/s 14.9 mm
10:00 15.2° 1015.8 hPa 2.3 m/s 14.9 mm 15.2° 1015.8 hPa 2.3 m/s 14.9 mm
13:00 17.3° 1015.5 hPa 2.6 m/s 15.0 mm 17.3° 1015.5 hPa 2.6 m/s 15.0 mm
16:00 16.8° 1016.0 hPa 1.9 m/s 15.0 mm 16.8° 1016.0 hPa 1.9 m/s 15.0 mm
19:00 16.3° 1016.0 hPa 2.1 m/s 15.0 mm 16.3° 1016.0 hPa 2.1 m/s 15.0 mm
22:00 13.1° 1016.9 hPa 1.6 m/s 15.0 mm 13.1° 1016.9 hPa 1.6 m/s 15.0 mm
 05:32     20:58    Daglengte: 15:26 Dinsdag 03 Aug
01:00 10.2° 1017.5 hPa 0.6 m/s 15.0 mm 10.2° 1017.5 hPa 0.6 m/s 15.0 mm
04:00 9.2° 1017.2 hPa 1.2 m/s 15.0 mm 9.2° 1017.2 hPa 1.2 m/s 15.0 mm
07:00 11.2° 1017.5 hPa 1.3 m/s 15.0 mm 11.2° 1017.5 hPa 1.3 m/s 15.0 mm
10:00 16.6° 1017.1 hPa 2.3 m/s 15.0 mm 16.6° 1017.1 hPa 2.3 m/s 15.0 mm
13:00 19.3° 1016.0 hPa 2.4 m/s 15.0 mm 19.3° 1016.0 hPa 2.4 m/s 15.0 mm
16:00 18.0° 1015.6 hPa 1.6 m/s 15.0 mm 18.0° 1015.6 hPa 1.6 m/s 15.0 mm
19:00 18.8° 1015.4 hPa 0.4 m/s 15.0 mm 18.8° 1015.4 hPa 0.4 m/s 15.0 mm
22:00 13.1° 1016.2 hPa 0.5 m/s 15.0 mm 13.1° 1016.2 hPa 0.5 m/s 15.0 mm
 05:34     20:56    Daglengte: 15:22 Woensdag 04 Aug
01:00 11.7° 1016.5 hPa 0.5 m/s 15.0 mm 11.7° 1016.5 hPa 0.5 m/s 15.0 mm
04:00 10.6° 1016.0 hPa 1.1 m/s 15.0 mm 10.6° 1016.0 hPa 1.1 m/s 15.0 mm
07:00 12.0° 1016.7 hPa 1.8 m/s 15.0 mm 12.0° 1016.7 hPa 1.8 m/s 15.0 mm
10:00 16.9° 1016.5 hPa 3.2 m/s 15.0 mm 16.9° 1016.5 hPa 3.2 m/s 15.0 mm
13:00 20.8° 1015.4 hPa 3.7 m/s 15.2 mm 20.8° 1015.4 hPa 3.7 m/s 15.2 mm
16:00 21.1° 1014.6 hPa 3.1 m/s 15.5 mm 21.1° 1014.6 hPa 3.1 m/s 15.5 mm
19:00 18.1° 1015.0 hPa 2.7 m/s 16.1 mm 18.1° 1015.0 hPa 2.7 m/s 16.1 mm
22:00 13.9° 1015.9 hPa 1.2 m/s 16.2 mm 13.9° 1015.9 hPa 1.2 m/s 16.2 mm
 05:36     20:55    Daglengte: 15:19 Donderdag 05 Aug
01:00 12.1° 1016.0 hPa 0.6 m/s 16.2 mm 12.1° 1016.0 hPa 0.6 m/s 16.2 mm
04:00 10.8° 1015.3 hPa 1.7 m/s 16.2 mm 10.8° 1015.3 hPa 1.7 m/s 16.2 mm
07:00 12.1° 1015.3 hPa 1.6 m/s 16.2 mm 12.1° 1015.3 hPa 1.6 m/s 16.2 mm
10:00 16.8° 1014.8 hPa 3.2 m/s 16.2 mm 16.8° 1014.8 hPa 3.2 m/s 16.2 mm
13:00 19.1° 1013.8 hPa 4.5 m/s 16.6 mm 19.1° 1013.8 hPa 4.5 m/s 16.6 mm
19:00 16.4° 1012.3 hPa 2.4 m/s 19.3 mm 16.4° 1012.3 hPa 2.4 m/s 19.3 mm
 05:37     20:53    Daglengte: 15:16 Vrijdag 06 Aug
01:00 14.3° 1011.9 hPa 1.8 m/s 20.5 mm 14.3° 1011.9 hPa 1.8 m/s 20.5 mm
07:00 13.4° 1010.5 hPa 1.8 m/s 20.5 mm 13.4° 1010.5 hPa 1.8 m/s 20.5 mm
13:00 20.2° 1008.7 hPa 3.9 m/s 20.6 mm 20.2° 1008.7 hPa 3.9 m/s 20.6 mm
19:00 17.3° 1006.6 hPa 4.8 m/s 22.8 mm 17.3° 1006.6 hPa 4.8 m/s 22.8 mm
 05:39     20:51    Daglengte: 15:12 Zaterdag 07 Aug
01:00 13.9° 1005.7 hPa 4.7 m/s 24.5 mm 13.9° 1005.7 hPa 4.7 m/s 24.5 mm
07:00 13.1° 1002.6 hPa 4.1 m/s 30.0 mm 13.1° 1002.6 hPa 4.1 m/s 30.0 mm
13:00 16.9° 1001.3 hPa 4.2 m/s 38.5 mm 16.9° 1001.3 hPa 4.2 m/s 38.5 mm
19:00 15.6° 1000.9 hPa 4.2 m/s 42.2 mm 15.6° 1000.9 hPa 4.2 m/s 42.2 mm
 05:41     20:49    Daglengte: 15:08 Zondag 08 Aug
01:00 11.3° 1003.0 hPa 1.5 m/s 43.2 mm 11.3° 1003.0 hPa 1.5 m/s 43.2 mm
07:00 13.0° 1007.9 hPa 2.8 m/s 0.4 mm
13:00 17.7° 1008.6 hPa 4.5 m/s 1.3 mm
19:00 17.2° 1009.3 hPa 4.0 m/s 1.5 mm
 05:42     20:47    Daglengte: 15:05 Maandag 09 Aug
01:00 13.0° 1011.3 hPa 2.9 m/s 0.4 mm
07:00 12.6° 1012.0 hPa 2.5 m/s 0.2 mm
13:00 19.2° 1013.1 hPa 4.0 m/s 0.0 mm
19:00 18.4° 1013.4 hPa 3.8 m/s 1.7 mm
 05:44     20:45    Daglengte: 15:01 Dinsdag 10 Aug
01:00 13.2° 1015.3 hPa 2.5 m/s 0.2 mm
07:00 12.8° 1015.4 hPa 2.6 m/s 0.4 mm
13:00 19.2° 1015.5 hPa 4.2 m/s 0.7 mm
19:00 18.1° 1014.7 hPa 3.7 m/s 1.3 mm
 05:46     20:43    Daglengte: 14:57 Woensdag 11 Aug
01:00 13.8° 1015.5 hPa 2.6 m/s 0.3 mm
07:00 13.6° 1015.4 hPa 2.8 m/s 0.6 mm
13:00 19.7° 1015.5 hPa 3.7 m/s 0.6 mm
19:00 18.5° 1015.2 hPa 3.2 m/s 0.9 mm
 05:47     20:41    Daglengte: 14:54 Donderdag 12 Aug
01:00 13.9° 1016.4 hPa 1.8 m/s 0.6 mm
07:00 13.1° 1016.2 hPa 1.5 m/s 0.5 mm
13:00 19.1° 1015.8 hPa 2.4 m/s 0.3 mm
19:00 18.0° 1015.2 hPa 2.9 m/s 1.2 mm
 05:49     20:39    Daglengte: 14:50 Vrijdag 13 Aug
01:00 13.2° 1016.0 hPa 2.0 m/s 0.7 mm
07:00 13.0° 1015.7 hPa 1.8 m/s 1.0 mm
FMI Hirlam - 7.5 km EWN WRFDA - 12 km DWD ICON - 7 km GFS - 25 km Basiskaart






























































Updatetijd (Europe/Amsterdam) Resolutie Lengte Stap
FMI Hirlam 07:00, 13:00, 19:00, 01:00 7.5 km 49h 1h
EWN WRFDA 10:15, 16:15, 22:15, 04:15 12 km 73h 1h
DWD ICON 06:15, 12:15, 18:15, 00:15 7 km 75h 1h
GFS 08:15, 14:15, 20:15, 02:15 25 km 237h 3h
30+ mm
25-30 mm
20-25 mm
15-20 mm
10-15 mm
6-10 mm
4-6 mm
2-4 mm
1-2 mm
0.5-1 mm
0.2-0.5 mm
0.1-0.2 mm
30+ mm
25-30 mm
20-25 mm
15-20 mm
10-15 mm
6-10 mm
4-6 mm
2-4 mm
1-2 mm
0.5-1 mm
0.2-0.5 mm
0.1-0.2 mm
Sneeuwval
Natte sneeuw
Hagel
Vorst
30+ mm
25-30 mm
20-25 mm
15-20 mm
10-15 mm
6-10 mm
4-6 mm
2-4 mm
1-2 mm
0.5-1 mm
0.2-0.5 mm
0.1-0.2 mm
Sneeuwval
Natte sneeuw
Hagel
Vorst
Onweer
50 mm
40 mm
30 mm
26 mm
22 mm
18 mm
14 mm
10 mm
9 mm
8 mm
7 mm
6 mm
5 mm
4.5 mm
4 mm
3.5 mm
3 mm
2.5 mm
2 mm
1.5 mm
1 mm
0.8 mm
0.6 mm
0.4 mm
0.2 mm
0.05 mm
35°
30°
25°
20°
15°
10°
-5°
-10°